Probability
48 45 39 48 45 39 35 32 35 26 32 19 29 26 13 19 16 26 13 13 13 19 16 13 13 13 3 3 0 0 0 0 3 3 10 6 13 13 6 6 6 10 3
48 48 52 45 39 35 29 23 35 42 32 13 16 23 19 13 10 10 6 6 6 13 10 16 6 6 13 13 6 6 6 13 3 10 6 6 10 6 10 6 0 0 3
52 48 48 48 39 39 32 35 39 35 26 23 19 26 23 19 29 19 6 3 10 3 3 6 3 3 6 3 0 6 6 0 3 3 0 6 3 0 6 0 0 0 0
48 48 45 39 39 32 29 39 32 32 29 19 19 19 16 16 23 19 13 23 10 6 3 3 0 0 0 0 0 0 0 0 0 3 0 0 3 0 3 0 0 0 0
42 45 42 39 35 26 26 23 23 19 19 29 26 23 19 19 19 23 19 10 10 6 6 3 0 0 0 0 0 0 0 0 3 3 0 3 6 0 0 0 0 0 0
32 32 39 35 19 19 23 23 19 19 19 19 19 19 16 6 0 0 13 10 13 10 6 3 0 0 0 0 0 0 0 0 0 0 3 3 3 0 0 0 0 0 0
35 29 29 26 26 23 19 19 19 19 19 19 19 19 19 6 0 0 0 13 6 6 6 3 3 0 0 0 0 0 0 0 0 3 3 3 0 0 0 0 0 0 0
32 32 26 29 23 19 19 19 19 19 19 19 19 19 19 6 0 0 0 0 3 6 6 3 3 0 0 0 0 0 0 0 0 0 0 0 0 0 0 0 0 0 0
26 29 23 23 23 19 19 19 19 19 19 16 16 13 13 6 3 0 0 3 3 6 3 3 3 0 0 0 0 0 0 0 0 0 0 0 0 0 0 0 0 0 0
26 23 19 16 23 16 16 16 16 16 13 10 10 13 13 6 3 0 0 3 6 3 3 3 0 0 0 0 0 0 0 0 0 0 0 0 0 0 0 0 0 0 0
26 26 19 16 16 13 13 13 10 10 10 10 10 10 3 3 0 0 0 0 6 3 3 3 0 0 0 0 0 0 0 0 0 0 0 0 0 0 0 0 0 0 0
26 23 19 13 6 10 10 10 10 10 6 6 3 3 0 0 0 0 0 0 0 3 0 0 0 0 0 0 0 0 0 0 0 0 0 0 0 0 0 0 0 0 0
16 13 10 6 6 6 10 10 6 6 6 3 3 0 0 0 0 0 0 0 0 0 0 0 0 0 0 0 0 0 0 0 0 0 0 0 0 0 0 0 0 0 0
10 6 10 6 6 6 6 6 3 3 3 3 0 0 0 0 0 0 0 0 0 0 0 0 0 0 0 0 0 0 0 0 0 0 0 0 0 0 0 0 0 0 0
3 3 3 3 6 6 0 0 0 0 0 0 0 0 0 0 0 0 0 0 0 0 0 0 0 0 0 0 0 0 0 0 0 0 0 0 0 0 0 0 0 0 0
0 3 3 0 0 0 0 0 0 0 0 0 0 0 0 0 0 0 0 0 0 0 0 0 0 0 0 0 0 0 0 0 0 0 0 0 0 0 0 0 0 0 0
0 0 0 0 0 0 0 0 0 0 0 0 0 0 0 0 0 0 0 0 0 0 0 0 0 0 0 0 0 0 0 0 0 0 0 0 0 0 0 0 0 0 0
0 0 0 0 0 0 0 0 0 0 0 0 0 0 0 0 0 0 0 0 0 0 0 0 0 0 0 0 0 0 0 0 0 0 0 0 0 0 0 0 0 0 0
0 0 0 0 0 0 0 0 0 0 0 0 0 0 0 0 0 0 0 0 0 0 0 0 0 0 0 0 0 0 0 0 0 0 0 0 0 0 0 0 0 0 0
0 0 0 0 0 0 0 0 0 0 0 0 0 0 0 0 0 0 0 0 0 0 0 0 0 0 0 0 0 0 0 0 0 0 0 0 0 0 0 0 0 0 0
0 0 0 0 0 0 0 0 0 0 0 0 0 0 0 0 0 0 0 0 0 0 0 0 0 0 0 0 0 0 0 0 0 0 0 0 0 0 0 0 0 0 0
0 0 0 0 0 0 0 0 0 0 0 0 0 0 0 0 0 0 0 0 0 0 0 0 0 0 0 0 0 0 0 0 0 0 0 0 0 0 0 0 0 0 0
0 0 0 0 0 0 0 0 0 0 0 0 0 0 0 0 0 0 0 0 0 0 0 0 0 0 0 0 0 0 0 0 0 0 0 0 0 0 0 0 0 0 0
0 0 0 0 0 0 0 0 0 0 0 0 0 0 0 0 0 0 0 0 0 0 0 0 0 0 0 0 0 0 0 0 0 0 0 0 0 0 0 0 0 0 0
0 0 0 0 0 0 0 0 0 0 0 0 0 0 0 0 0 0 0 0 0 0 0 0 0 0 0 0 0 0 0 0 0 0 0 0 0 0 0 0 0 0 0
0 0 0 0 0 0 0 0 0 0 0 0 0 0 0 0 0 0 0 0 0 0 0 0 0 0 0 0 0 0 0 0 0 0 0 0 0 0 0 0 0 0 0
Height
5847 5848 5848 5849 5850 5851 5852 5853 5854 5856 5858 5859 5861 5863 5864 5866 5867 5869 5870 5871 5872 5873 5873 5873 5874 5874 5874 5873 5873 5873 5872 5872 5871 5870 5868 5867 5866 5865 5864 5862 5861 5859 5858
5845 5846 5846 5846 5847 5848 5849 5849 5850 5852 5853 5855 5857 5859 5860 5862 5863 5864 5865 5866 5867 5868 5868 5868 5868 5868 5868 5867 5867 5866 5866 5865 5864 5862 5861 5860 5858 5857 5855 5854 5852 5850 5849
5843 5844 5844 5844 5844 5845 5846 5846 5847 5849 5850 5851 5853 5854 5856 5857 5858 5859 5860 5861 5862 5862 5862 5862 5862 5862 5861 5861 5860 5859 5858 5857 5856 5855 5853 5852 5850 5849 5847 5845 5843 5841 5838
5841 5841 5841 5841 5841 5842 5842 5843 5844 5845 5846 5848 5849 5850 5852 5852 5853 5854 5855 5856 5856 5856 5856 5856 5856 5855 5855 5854 5853 5852 5851 5850 5848 5847 5845 5844 5842 5840 5838 5835 5833 5831 5828
5838 5838 5837 5837 5838 5838 5839 5840 5841 5842 5842 5843 5844 5846 5846 5847 5848 5849 5850 5850 5850 5850 5850 5850 5849 5849 5848 5847 5846 5845 5844 5842 5841 5839 5837 5835 5833 5831 5828 5825 5823 5820 5817
5834 5834 5834 5834 5834 5834 5835 5836 5836 5837 5838 5839 5840 5841 5841 5842 5842 5843 5843 5844 5844 5843 5843 5842 5842 5841 5840 5839 5838 5837 5836 5834 5832 5830 5828 5826 5823 5821 5818 5815 5812 5809 5806
5830 5830 5829 5829 5830 5830 5830 5831 5831 5832 5833 5834 5835 5836 5836 5836 5837 5837 5837 5837 5837 5837 5836 5835 5835 5834 5833 5832 5830 5829 5827 5825 5823 5821 5818 5815 5813 5810 5807 5803 5799 5796 5792
5825 5825 5824 5824 5825 5825 5825 5825 5826 5827 5827 5828 5829 5830 5830 5830 5831 5831 5831 5830 5830 5830 5829 5828 5827 5826 5825 5824 5822 5820 5818 5816 5814 5811 5808 5805 5801 5798 5794 5790 5786 5782 5777
5820 5820 5819 5819 5819 5819 5819 5820 5820 5821 5822 5823 5823 5824 5824 5824 5824 5824 5824 5823 5823 5822 5822 5821 5820 5819 5817 5815 5813 5811 5809 5806 5803 5800 5796 5793 5789 5785 5781 5776 5772 5767 5762
5814 5814 5814 5814 5814 5814 5814 5814 5814 5815 5816 5817 5818 5818 5818 5818 5818 5818 5818 5817 5816 5815 5814 5813 5812 5810 5808 5806 5804 5801 5798 5795 5792 5788 5785 5781 5776 5771 5767 5762 5756 5751 5745
5808 5808 5808 5808 5808 5808 5808 5809 5809 5809 5810 5811 5811 5811 5811 5811 5811 5811 5810 5810 5809 5807 5806 5804 5803 5801 5799 5796 5794 5791 5787 5784 5780 5776 5772 5767 5762 5757 5752 5746 5740 5734 5728
5802 5802 5802 5802 5802 5802 5803 5803 5803 5803 5804 5804 5804 5805 5804 5804 5804 5803 5802 5802 5800 5799 5797 5795 5793 5791 5789 5786 5783 5780 5776 5772 5768 5763 5758 5753 5748 5742 5736 5730 5724 5718 5711
5795 5795 5795 5796 5796 5796 5796 5796 5796 5796 5797 5797 5797 5797 5797 5796 5796 5795 5794 5793 5791 5789 5788 5786 5783 5781 5778 5775 5772 5769 5765 5760 5755 5750 5745 5740 5734 5728 5721 5715 5709 5702 5695
5788 5788 5788 5788 5789 5789 5789 5789 5789 5789 5790 5790 5790 5790 5789 5788 5788 5786 5785 5784 5782 5780 5777 5775 5773 5770 5768 5765 5761 5757 5753 5748 5742 5737 5732 5726 5721 5715 5708 5702 5695 5688 5681
5780 5781 5781 5781 5781 5781 5781 5782 5782 5782 5782 5783 5783 5782 5781 5780 5780 5778 5777 5775 5773 5771 5768 5766 5763 5761 5758 5754 5750 5745 5741 5736 5731 5725 5720 5714 5708 5702 5696 5689 5683 5675 5668
5773 5773 5773 5773 5774 5774 5774 5774 5774 5775 5775 5775 5775 5775 5773 5773 5771 5770 5768 5766 5764 5762 5759 5757 5753 5750 5747 5743 5739 5735 5730 5725 5720 5715 5709 5703 5697 5691 5685 5678 5671 5664 5657
5765 5765 5765 5766 5766 5766 5766 5767 5767 5767 5767 5767 5767 5766 5766 5765 5763 5762 5760 5758 5755 5753 5750 5747 5744 5740 5737 5733 5729 5724 5720 5715 5710 5705 5699 5693 5687 5681 5675 5668 5661 5655 5648
5757 5757 5758 5758 5758 5758 5759 5759 5759 5760 5760 5759 5759 5758 5757 5756 5755 5754 5752 5750 5747 5744 5741 5738 5734 5731 5727 5723 5719 5714 5710 5705 5700 5695 5690 5684 5678 5672 5666 5659 5653 5647 5640
5749 5750 5750 5751 5751 5751 5752 5752 5752 5753 5753 5752 5751 5750 5749 5748 5747 5745 5743 5741 5738 5735 5732 5729 5725 5722 5718 5714 5710 5705 5701 5696 5691 5686 5681 5676 5670 5664 5658 5652 5646 5640 5634
5741 5742 5743 5744 5744 5745 5745 5745 5745 5745 5745 5745 5744 5743 5742 5741 5739 5737 5735 5732 5729 5726 5723 5720 5717 5713 5709 5705 5701 5697 5692 5687 5683 5678 5673 5668 5663 5657 5652 5646 5640 5634 5628
5735 5735 5736 5737 5738 5738 5739 5739 5739 5739 5739 5738 5737 5736 5735 5733 5731 5729 5726 5724 5721 5718 5715 5711 5708 5704 5701 5697 5693 5688 5684 5680 5675 5670 5666 5661 5656 5651 5646 5640 5635 5629 5623
5729 5730 5730 5731 5731 5732 5732 5732 5732 5732 5732 5731 5730 5729 5727 5726 5723 5721 5718 5715 5712 5709 5706 5703 5700 5697 5693 5689 5685 5681 5677 5672 5668 5664 5659 5655 5650 5645 5641 5635 5630 5625 5619
5724 5724 5725 5725 5726 5726 5726 5726 5726 5725 5725 5724 5723 5721 5719 5717 5715 5712 5710 5707 5705 5702 5698 5695 5692 5689 5685 5681 5678 5674 5670 5666 5662 5658 5653 5649 5645 5640 5636 5631 5626 5621 5615
5719 5719 5720 5720 5720 5720 5720 5720 5719 5719 5718 5717 5715 5713 5711 5709 5707 5704 5702 5700 5697 5694 5691 5687 5684 5681 5678 5674 5671 5667 5663 5660 5656 5652 5648 5644 5640 5635 5631 5626 5621 5617 5612
5714 5715 5715 5715 5715 5715 5714 5714 5713 5712 5711 5709 5707 5705 5703 5701 5699 5697 5694 5692 5689 5686 5683 5680 5677 5674 5671 5667 5664 5661 5657 5654 5650 5646 5643 5639 5635 5631 5626 5622 5617 5612 5607
5710 5710 5710 5710 5709 5709 5708 5707 5706 5705 5703 5701 5699 5697 5695 5693 5691 5689 5687 5684 5681 5679 5676 5673 5670 5667 5664 5661 5658 5655 5651 5648 5645 5641 5637 5633 5630 5626 5621 5617 5612 5608 5603
Wind_Speed
7 9 10 12 12 14 15 16 17 18 18 19 20 21 21 21 21 21 22 22 21 22 22 23 23 24 24 25 26 27 27 28 28 29 29 29 29 30 31 32 32 33 34
8 9 10 11 12 13 14 15 16 17 18 19 19 20 20 21 21 21 21 21 22 21 22 23 24 25 26 27 27 28 29 30 30 31 31 31 32 33 34 35 36 37 37
10 10 11 12 12 14 15 15 16 18 19 20 20 20 20 21 21 21 21 22 22 22 23 23 24 25 26 26 27 28 29 31 31 32 33 33 34 35 36 38 39 40 41
12 12 13 14 14 15 15 16 17 18 19 19 19 20 21 21 21 22 22 23 24 24 24 25 25 26 26 27 27 28 29 30 31 33 34 35 37 38 39 40 42 43 43
13 14 14 15 16 16 17 17 17 18 19 19 19 20 21 22 22 23 24 25 25 26 26 26 26 27 28 29 30 31 31 32 33 34 35 37 39 40 41 42 43 44 45
15 15 16 16 17 17 18 19 19 20 21 21 21 21 22 23 24 25 26 26 27 27 27 27 27 27 28 29 30 30 31 33 34 35 37 39 40 40 41 43 45 46 48
16 17 17 17 18 18 20 21 21 21 21 22 22 22 23 24 25 26 27 26 26 27 27 27 27 27 27 29 30 31 33 34 36 37 38 40 42 43 44 46 48 49 51
19 19 19 20 20 20 21 22 22 22 22 23 22 22 22 23 24 25 25 25 26 27 27 28 28 29 30 31 32 33 35 36 37 39 41 43 45 45 47 49 51 53 55
21 20 19 20 20 21 22 21 22 23 23 23 23 23 23 23 24 25 25 25 26 27 28 29 30 32 32 33 34 35 37 38 40 42 43 45 46 49 51 52 54 56 57
21 21 20 20 20 21 21 22 24 24 24 24 25 25 25 25 25 26 27 27 27 27 29 30 32 32 33 35 36 38 39 40 42 44 46 48 49 51 52 54 55 57 58
23 22 22 21 21 22 22 23 23 24 24 25 25 25 26 26 27 27 27 27 28 29 30 32 33 34 35 36 38 40 41 43 45 46 48 50 51 52 53 55 56 57 59
24 24 24 24 23 23 24 24 25 26 27 27 26 27 28 28 27 27 28 29 30 31 32 32 34 35 37 38 39 41 43 44 46 47 49 50 51 52 53 54 55 56 57
25 25 25 25 25 25 25 26 26 27 27 27 27 28 29 29 30 31 31 32 33 34 35 36 37 38 38 39 41 42 44 45 46 47 48 49 50 51 51 52 52 53 54
26 26 26 27 26 26 26 26 27 27 27 28 28 28 29 30 32 33 34 34 35 36 36 38 38 38 39 39 41 42 44 44 44 45 46 47 47 48 48 49 50 50 51
27 26 27 26 26 26 26 26 27 28 28 28 28 29 30 30 31 31 31 33 35 35 35 36 37 38 38 39 40 41 42 42 42 43 43 44 45 45 45 46 47 47 46
26 26 26 26 25 26 27 27 28 28 28 29 29 29 29 30 31 31 31 32 33 33 33 34 35 36 37 39 39 40 40 40 40 40 41 41 42 42 43 44 44 43 42
26 26 27 26 26 26 27 27 27 27 28 27 28 29 29 30 30 30 30 30 31 32 32 33 34 35 36 37 37 38 37 37 38 38 39 39 40 40 40 40 40 39 38
26 26 27 27 26 25 25 26 26 26 26 27 28 29 29 28 28 28 29 30 31 32 32 32 33 33 34 35 35 35 35 36 36 37 37 37 37 37 38 37 36 35 35
25 25 25 25 25 25 25 25 24 25 26 26 27 27 26 27 28 28 29 30 30 30 30 31 32 32 32 33 33 34 34 35 35 35 35 34 34 35 35 34 33 33 32
24 23 23 23 24 24 23 23 24 24 24 24 25 26 26 27 27 27 27 27 28 29 29 30 30 30 31 32 32 32 33 33 33 32 32 32 32 32 31 31 31 31 31
21 21 21 21 21 21 21 21 22 22 22 23 23 23 24 25 25 26 26 28 28 28 28 29 29 30 30 30 30 31 31 31 30 30 29 29 29 29 29 29 29 29 29
19 20 20 21 21 20 19 20 21 21 22 22 22 22 23 25 26 27 27 27 27 27 28 28 28 29 29 29 29 29 29 28 28 27 27 27 27 27 27 27 28 28 28
17 17 18 18 19 19 19 20 20 20 21 21 22 23 25 26 26 26 26 26 26 26 27 27 27 27 27 27 27 27 26 26 26 25 25 25 25 26 26 26 27 27 28
15 15 16 16 17 17 18 19 20 20 21 22 23 25 25 25 25 25 25 25 25 26 25 25 25 25 25 25 25 25 25 24 24 24 24 24 24 25 25 26 26 27 27
13 14 15 17 18 18 19 20 20 21 22 23 24 24 24 24 24 25 25 25 25 25 24 24 24 24 24 24 24 24 23 23 23 23 23 23 24 25 25 26 26 27 27
14 15 16 17 18 18 19 19 21 22 22 23 23 23 24 24 24 25 25 25 24 24 24 24 23 23 23 23 23 23 22 22 22 23 23 23 24 25 25 26 27 27 28
Wind_Direction
264 255 246 245 243 237 237 235 234 235 238 236 232 233 236 238 239 241 243 246 250 252 254 257 259 262 265 267 269 270 270 271 274 276 276 277 276 277 279 279 280 281 281
264 259 254 251 247 242 239 241 237 236 235 235 233 235 238 240 242 244 246 248 252 254 258 260 262 265 268 269 270 271 272 273 274 275 276 277 277 278 279 280 281 283 282
265 260 255 253 252 246 243 243 239 238 238 238 237 240 242 242 244 246 248 250 253 257 261 264 266 269 269 271 272 273 274 274 274 275 276 277 278 279 280 282 283 283 284
270 265 261 257 253 249 248 247 246 242 242 243 244 244 243 245 246 247 249 252 256 260 262 264 267 268 270 271 272 274 275 276 276 277 277 278 280 280 281 282 283 283 284
274 268 264 259 254 250 249 250 250 248 245 245 247 249 247 248 250 251 253 255 259 262 263 265 269 270 271 272 273 274 276 277 279 279 280 281 282 282 282 283 284 285 285
276 272 267 263 259 255 254 253 253 252 250 250 249 251 252 252 252 252 255 258 260 262 265 266 269 272 273 273 274 276 278 280 280 281 282 283 284 284 284 286 287 286 286
278 276 271 264 262 258 256 256 255 252 253 254 256 254 255 256 255 256 258 260 263 265 267 267 269 271 275 276 278 280 282 283 284 285 286 286 287 287 287 288 288 289 289
276 275 271 266 264 261 260 256 254 253 253 253 255 255 254 256 256 258 261 266 268 268 269 270 273 277 279 280 282 283 285 287 287 288 288 289 290 289 290 291 290 290 291
272 274 272 266 265 264 259 258 254 254 254 253 257 258 259 258 259 262 266 269 270 271 272 274 278 279 281 283 286 288 289 290 290 290 290 290 290 290 291 292 292 292 292
270 270 271 271 270 266 261 260 256 256 256 257 259 261 260 261 263 266 269 271 274 275 276 278 280 282 284 287 289 290 290 291 292 292 292 292 292 293 294 294 294 294 294
267 268 268 268 269 267 263 262 260 258 259 259 260 260 262 265 267 269 273 274 277 279 281 282 284 286 287 288 289 290 292 293 294 294 294 294 295 296 296 296 296 296 295
265 265 266 266 267 266 265 263 262 262 261 260 260 262 266 268 270 272 272 273 276 278 282 285 288 289 289 290 292 294 295 297 297 297 297 298 298 298 298 298 298 298 298
263 264 264 265 266 267 266 265 265 262 261 260 262 266 268 269 272 274 275 277 279 282 284 288 291 293 293 293 294 296 298 299 299 299 300 300 301 301 301 302 302 302 301
262 263 263 264 266 267 267 267 265 263 263 264 267 269 269 270 273 277 278 280 283 285 287 290 293 294 295 296 297 298 300 301 301 302 302 303 303 304 305 306 306 306 305
262 264 264 263 263 263 264 265 264 262 261 264 267 271 273 275 277 280 281 283 285 287 290 292 294 297 298 299 299 300 301 303 304 305 305 306 307 308 309 309 310 310 310
263 263 262 262 263 263 262 262 262 261 262 267 268 271 275 278 279 279 281 285 288 291 294 295 297 298 299 300 302 304 305 306 307 307 309 310 311 311 312 313 314 314 314
262 261 259 261 262 263 262 262 262 264 266 268 271 274 276 278 281 284 287 290 294 296 296 297 299 301 302 303 304 306 306 307 308 310 312 313 314 314 315 316 316 316 317
261 260 260 260 260 261 261 263 265 266 267 270 273 275 278 280 285 289 292 295 296 296 298 300 302 303 304 305 306 307 308 309 311 312 313 314 315 316 318 319 319 321 321
261 261 258 256 258 259 260 262 264 266 267 271 274 276 281 284 287 289 291 293 295 298 302 304 304 305 306 307 308 309 310 311 312 313 313 314 316 319 321 323 324 325 326
259 257 255 255 256 257 259 261 263 265 269 275 277 280 283 286 288 290 293 297 300 303 305 306 307 308 309 310 310 311 312 313 313 314 314 316 318 321 324 325 327 328 329
255 254 254 254 254 256 258 260 265 270 274 278 280 282 286 290 292 295 299 302 304 305 307 308 309 310 311 311 312 312 313 314 314 315 316 318 320 323 325 328 330 331 332
252 253 253 254 255 257 261 266 268 271 277 281 286 290 292 294 296 298 301 302 304 306 308 309 309 309 311 312 313 314 315 315 315 316 318 320 322 325 327 329 332 333 334
253 255 256 258 262 261 262 266 271 276 281 286 290 293 296 297 298 299 301 304 306 308 308 308 308 309 311 312 314 314 315 315 316 317 320 322 324 326 328 330 332 333 334
255 256 259 265 268 268 270 274 279 283 287 289 292 294 297 299 300 301 303 305 306 307 308 308 308 309 310 312 313 314 315 315 316 319 321 323 325 326 327 329 331 332 333
260 261 266 271 273 274 277 281 284 287 289 292 295 297 299 300 301 301 303 304 304 305 306 306 307 308 309 311 312 314 315 315 317 319 321 323 325 327 328 329 330 331 332
268 270 272 274 276 280 284 286 289 291 294 296 297 298 299 300 300 300 301 301 302 303 303 304 305 307 308 309 310 311 312 313 315 318 320 322 325 326 328 329 329 330 330